This demonstration page uses our WeatherBlox Daily Observations layout. Learn more.

Left ArrowRight Arrow

39.51506, -84.39828

Hourly Observations for March 8, 2015

Temp ( °F °C ) Dew Point ( °F °C ) Humidity (%) Winds ( mph kmh ) Pressure ( in mb ) Visibility ( mi km ) Precip ( " mm )
12:15 am 00:15 Clear 39 4 28 -2.5 63 63 WSW 8 13 30.21 1023 10 16 N/A
12:35 am 00:35 Clear 39 4 28 -2.2 64 64 WSW 8 13 30.21 1023 10 16 N/A
12:55 am 00:55 Clear 39 4 29 -1.8 66 66 WSW 8 13 30.21 1023 10 16 N/A
1:15 am 01:15 Clear 39 3.9 28 -2.1 65 65 WSW 6 9 30.24 1024 10 16 N/A
1:35 am 01:35 Clear 39 4 28 -2 65 65 W 6 9 30.24 1024 10 16 N/A
1:55 am 01:55 Clear 37 2.6 27 -2.8 68 68 W 6 9 30.24 1024 10 16 N/A
3:15 am 03:15 Clear 37 2.6 28 -2.4 70 70 W 6 9 30.24 1024 10 16 N/A
3:35 am 03:35 Clear 37 2.6 28 -2.1 71 71 W 6 9 30.24 1024 10 16 N/A
3:55 am 03:55 Clear 34 1.2 27 -2.9 74 74 N N/A 30.24 1024 10 16 N/A
4:15 am 04:15 Clear 33 0.7 28 -2.2 81 81 N N/A 30.24 1024 10 16 N/A
4:35 am 04:35 Clear 32 undefined 27 -2.7 82 82 N N/A 30.24 1024 10 16 N/A
4:55 am 04:55 Clear 32 undefined 27 -2.6 83 83 N N/A 30.24 1024 10 16 N/A
5:15 am 05:15 Clear 29 -1.4 24 -4.3 81 81 N N/A 30.24 1024 10 16 N/A
5:35 am 05:35 Clear 31 -0.5 27 -3 83 83 undefined N/A N/A 10 16 N/A
5:55 am 05:55 Clear 29 -1.5 25 -3.7 85 85 N N/A 30.27 1025 7 11 N/A
6:15 am 06:15 Clear 29 -1.5 26 -3.6 86 86 N N/A 30.27 1025 7 11 N/A
6:35 am 06:35 Clear 29 -1.5 26 -3.5 86 86 N N/A 30.27 1025 7 11 N/A
6:55 am 06:55 Clear 29 -1.5 26 -3.5 86 86 N N/A 30.27 1025 7 11 N/A
7:15 am 07:15 Clear 29 -1.5 26 -3.3 88 88 N N/A 30.27 1025 7 11 N/A
7:35 am 07:35 Clear with Mist and Fog 29 -1.5 26 -3.3 88 88 N N/A 30.27 1025 5 8 N/A
7:55 am 07:55 Clear with Mist and Fog 29 -1.5 26 -3.3 88 88 N N/A 30.27 1025 5 8 N/A
8:15 am 08:15 Sunny with Mist and Fog 29 -1.5 26 -3.3 88 88 N N/A 30.27 1025 3 5 N/A
8:35 am 08:35 Sunny with Mist and Fog 29 -1.5 26 -3.3 88 88 N N/A 30.27 1025 4 6 N/A
8:55 am 08:55 Sunny with Mist and Fog 29 -1.5 26 -3.2 88 88 N N/A 30.27 1025 4 6 N/A
9:15 am 09:15 Sunny with Mist and Fog 29 -1.4 26 -3.2 88 88 N N/A 30.30 1026 5 8 N/A
9:35 am 09:35 Sunny 34 1.2 31 -0.5 89 89 N N/A 30.27 1025 7 11 N/A
9:55 am 09:55 Sunny 37 2.6 32 -0.1 83 83 S 5 7 30.30 1026 10 16 N/A
10:15 am 10:15 Sunny 38 3.2 31 -0.6 76 76 SW 5 7 30.30 1026 10 16 N/A
10:35 am 10:35 Sunny 39 4 31 -0.6 72 72 SSW 6 9 30.30 1026 10 16 N/A
10:55 am 10:55 Sunny 39 4 30 -1 70 70 SSW 6 9 30.30 1026 10 16 N/A
11:15 am 11:15 Sunny 40 4.6 31 -0.7 69 69 SSW 7 11 30.30 1026 10 16 N/A
11:35 am 11:35 Sunny 41 4.8 30 -1.1 66 66 SW 7 11 30.30 1026 10 16 N/A
11:55 am 11:55 Sunny 42 5.5 30 -1.1 63 63 SW 6 9 30.30 1026 10 16 N/A
12:15 pm 12:15 Sunny 43 6.1 30 -1.3 59 59 SW 6 9 30.30 1026 10 16 N/A
12:35 pm 12:35 Sunny 44 6.8 29 -1.6 55 55 WSW 6 9 30.27 1025 10 16 N/A
12:55 pm 12:55 Sunny 46 7.8 31 -0.6 56 56 WNW 6 9 30.27 1025 10 16 N/A
1:15 pm 13:15 Sunny 47 8.2 31 -0.6 54 54 SW 5 7 30.27 1025 10 16 N/A
1:35 pm 13:35 Sunny 47 8.6 31 -0.5 53 53 SSW 6 9 30.27 1025 10 16 N/A
1:55 pm 13:55 Sunny 49 9.6 33 0.5 53 53 SSW 7 11 30.27 1025 10 16 N/A
2:15 pm 14:15 Sunny 49 9.6 33 0.3 53 53 SSW 7 11 30.27 1025 10 16 N/A
2:35 pm 14:35 Sunny 49 9.6 32 -0.2 51 51 S 7 11 30.24 1024 10 16 N/A
2:55 pm 14:55 Sunny 49 9.6 31 -0.7 49 49 SW 8 13 30.24 1024 10 16 N/A
3:15 pm 15:15 Sunny 49 9.6 30 -1.2 47 47 SW 6 9 30.21 1023 10 16 N/A
3:35 pm 15:35 Sunny 49 9.6 29 -1.4 47 47 SSW 3 6 30.21 1023 10 16 N/A
3:55 pm 15:55 Sunny 49 9.6 29 -1.9 45 45 SW 5 7 30.21 1023 10 16 N/A
4:15 pm 16:15 Sunny 49 9.6 29 -1.9 45 45 S 3 6 30.21 1023 10 16 N/A
4:35 pm 16:35 Sunny 49 9.6 27 -2.9 42 42 SW 5 7 30.21 1023 10 16 N/A
4:55 pm 16:55 Sunny 50 10 25 -4.1 37 37 WSW 3 6 30.21 1023 10 16 N/A
5:15 pm 17:15 Sunny 50 10.2 27 -2.7 41 41 SSW 3 6 30.21 1023 10 16 N/A
5:35 pm 17:35 Sunny 51 10.3 25 -3.9 37 37 N N/A 30.18 1022 10 16 N/A
5:55 pm 17:55 Sunny 52 11 26 -3.6 36 36 SW 3 6 30.18 1022 10 16 N/A
6:15 pm 18:15 Sunny 51 10.3 29 -1.8 43 43 N N/A 30.18 1022 10 16 N/A
6:35 pm 18:35 Sunny 49 9.6 24 -4.2 38 38 N N/A 30.18 1022 10 16 N/A
6:55 pm 18:55 Sunny 49 9.6 26 -3.4 40 40 SSW 3 6 30.18 1022 10 16 N/A
7:15 pm 19:15 Partly Cloudy 49 9.6 23 -5.2 35 35 WSW 5 7 30.18 1022 10 16 N/A
7:35 pm 19:35 Sunny 44 6.9 25 -3.8 47 47 N N/A 30.18 1022 10 16 N/A
7:55 pm 19:55 Clear 42 5.7 28 -2.3 57 57 NNE 3 6 30.18 1022 10 16 N/A
8:15 pm 20:15 Clear 41 5 28 -2.1 60 60 N N/A 30.21 1023 10 16 N/A
8:35 pm 20:35 Clear 39 4 28 -2.1 65 65 N N/A 30.21 1023 10 16 N/A
8:55 pm 20:55 Clear 39 3.7 29 -1.7 68 68 N N/A 30.21 1023 10 16 N/A
9:15 pm 21:15 Clear 38 3.4 29 -1.5 71 71 N N/A 30.21 1023 10 16 N/A
9:35 pm 21:35 Clear 37 3 28 -2.1 69 69 N N/A 30.21 1023 10 16 N/A
9:55 pm 21:55 Clear 37 2.6 28 -2.3 70 70 N N/A 30.21 1023 10 16 N/A
10:15 pm 22:15 Clear 37 2.6 29 -1.7 74 74 N N/A 30.21 1023 10 16 N/A
10:35 pm 22:35 Clear 37 2.6 29 -1.6 74 74 N N/A 30.21 1023 10 16 N/A
10:55 pm 22:55 Clear 37 2.6 29 -1.7 74 74 N N/A 30.21 1023 10 16 N/A
11:15 pm 23:15 Clear 35 1.8 28 -2.2 75 75 N N/A 30.21 1023 10 16 N/A
11:35 pm 23:35 Clear 34 1.2 28 -2 79 79 N N/A 30.21 1023 10 16 N/A
11:55 pm 23:55 Clear 34 1.2 29 -1.5 82 82 N N/A 30.21 1023 10 16 N/A

Powered by AerisWeather